Aérodrome :
LOGIN :

S'inscrire | Disclaimer

   EN    FR    IT 

 










Légende :    VFR   VFR Marginal   IFR   IFR Intensif   IFR Très Intensif
Visi : 
Plafond : 
>= 8 km
>= 3000ft
5 à 8 km
1000 à 3000 ft
1500m à 5 km
500 à 1000 ft
800 à 1500m
200 à 500 ft
< 800m
< 200 ft
Symboles :   Orages  Brouillard  Fortes neiges  Fortes précipitations  Vent > 20 kt
SIGMETs :   Divers  Orages  Givrage  Turbulence  Onde Orograph.  Cendres Volcan.







- Altitude de l'aérodrome : 37 ft
- Code IATA : OLB


LIEO - Olbia Costa Smeralda

DERNIER METAR :
  • 171450Z 09010KT 070V130 CAVOK 30/14 Q1012

METARs EXPIRÉS :
  • 171420Z 09011KT 060V130 CAVOK 30/14 Q1012
  • 171350Z 08012KT 060V120 CAVOK 30/13 Q1012
  • 171320Z 09011KT CAVOK 30/13 Q1012
  • 171250Z 08011KT 050V110 CAVOK 30/12 Q1013
  • 171220Z 07012KT CAVOK 30/13 Q1012

TAF TAF LIEO
Valide du 17 à 12h jusqu'au 18 à 12h UTC


171100Z 1712/1812 02012KT 9999 SCT040
BECMG 1718/1720 VRB04KT
BECMG 1808/1810 06012KT
Pas de NOTAMs connus pour ce terrain.



MET'MAP, la Météo Aéronautique d'un coup d'oeil ! - Copyright ORBIFLY Décembre 2007 - Disclaimer

ORBIFLY MET'MAP TEAM :

Programmation & Développement : Alexandra Zaïnal
Conception & Développement : Baudouin d'Aumeries
Co-Programmation & Développement : Marc-Olivier Méhu
Soutien technique & logistique : Manuel Goepfert

Contact : metmap@orbifly.com




SOURCES & CREDITS :

   NOAA